Laconia, New Hampshire, United States (03246)
Lat: 43.53N, Lon: 71.47W
Wx Zone: NHZ009
Local Info
Past Weather Observations for Friday, May 22, 2015

NOTE: This archive is for the closest National Weather Service station to Laconia. Information may differ from the station used for current weather conditions.

Click here for Long-term Archive

Time Weather Temperature Dewpoint Humidity Pressure Winds Precip Visibility
23:55
Overcast
45°F / 7°C 27°F / -3°C 49% 30.09 in
(1019 mb)
WNW 10.4 mph
(WNW 17 kph)
- 10SM
23:35
Overcast
46°F / 8°C 27°F / -3°C 46% 30.09 in
(1019 mb)
NW 9.2 mph
(NW 15 kph)
- 10SM
23:15
Mostly Cloudy
46°F / 8°C 27°F / -3°C 46% 30.06 in
(1018 mb)
WNW 10.4 mph
(WNW 17 kph)
- 10SM
22:55
Partly Cloudy
46°F / 8°C 27°F / -3°C 46% 30.06 in
(1018 mb)
WNW 10.4 mph
(WNW 17 kph)
- 10SM
22:35
Partly Cloudy
48°F / 9°C 27°F / -3°C 43% 30.06 in
(1018 mb)
WNW 12.7 mph
(WNW 20 kph)
- 10SM
22:15
Mostly Cloudy
48°F / 9°C 27°F / -3°C 43% 30.04 in
(1017 mb)
NW 9.2 mph
(NW 15 kph)
- 10SM
21:55
Mostly Cloudy
50°F / 10°C 27°F / -3°C 40% 30.04 in
(1017 mb)
W 8.1 mph
(W 13 kph)
- 10SM
21:35
Overcast
52°F / 11°C 28°F / -2°C 41% 30.04 in
(1017 mb)
NW 12.7 mph
(NW 20 kph)
- 10SM
21:15
Overcast
52°F / 11°C 27°F / -3°C 38% 30.01 in
(1016 mb)
W 5.8 mph
(W 9 kph)
- 10SM
20:55
Overcast
52°F / 11°C 27°F / -3°C 38% 30.01 in
(1016 mb)
WNW 6.9 mph
(WNW 11 kph)
- 10SM
20:35
Mostly Cloudy
52°F / 11°C 27°F / -3°C 38% 30.01 in
(1016 mb)
NW 6.9 mph
(NW 11 kph)
- 10SM
20:15
Partly Cloudy
52°F / 11°C 27°F / -3°C 38% 29.98 in
(1015 mb)
W 4.6 mph
(W 7 kph)
- 10SM
19:55
Partly Cloudy
54°F / 12°C 25°F / -4°C 33% 29.98 in
(1015 mb)
W 4.6 mph
(W 7 kph)
- 10SM
19:35
Clear
54°F / 12°C 25°F / -4°C 33% 29.98 in
(1015 mb)
W 4.6 mph
(W 7 kph)
- 10SM
19:15
Clear
54°F / 12°C 25°F / -4°C 33% 29.95 in
(1014 mb)
W 6.9 mph
(W 11 kph)
- 10SM
18:55
Clear
55°F / 13°C 25°F / -4°C 31% 29.95 in
(1014 mb)
WNW 10.4 mph
(WNW 17 kph)
- 10SM
18:35
Clear
57°F / 14°C 25°F / -4°C 29% 29.92 in
(1013 mb)
WNW 5.8 mph
(WNW 9 kph)
- 10SM
18:15
Clear
57°F / 14°C 25°F / -4°C 29% 29.92 in
(1013 mb)
WNW 10.4 mph
(WNW 17 kph)
- 10SM
17:55
Partly Cloudy
57°F / 14°C 25°F / -4°C 29% 29.92 in
(1013 mb)
NW 8.1 mph
(NW 13 kph)
- 10SM
17:35
Partly Cloudy
61°F / 16°C 25°F / -4°C 25% 29.92 in
(1013 mb)
NW 18.4 mph
(NW 30 kph)
- 10SM
17:15
Clear
61°F / 16°C 25°F / -4°C 25% 29.89 in
(1012 mb)
NW 16.1 mph
(NW 26 kph)
- 10SM
16:55
Partly Cloudy
63°F / 17°C 27°F / -3°C 25% 29.89 in
(1012 mb)
SSW 13.8 mph
(SSW 22 kph)
- 10SM
16:35
Partly Cloudy
63°F / 17°C 28°F / -2°C 27% 29.89 in
(1012 mb)
NW 15 mph
(NW 24 kph)
- 10SM
16:15
Partly Cloudy
63°F / 17°C 30°F / -1°C 30% 29.86 in
(1011 mb)
NW 13.8 mph
(NW 22 kph)
- 10SM
15:55
Mostly Cloudy
63°F / 17°C 32°F / 0°C 32% 29.86 in
(1011 mb)
NW 13.8 mph
(NW 22 kph)
- 10SM
15:35
Mostly Cloudy
61°F / 16°C 32°F / 0°C 34% 29.83 in
(1010 mb)
WNW 9.2 mph
(WNW 15 kph)
- 10SM
15:15
Mostly Cloudy
64°F / 18°C 34°F / 1°C 32% 29.83 in
(1010 mb)
NW 16.1 mph
(NW 26 kph)
- 10SM
14:55
Partly Cloudy
64°F / 18°C 34°F / 1°C 32% 29.83 in
(1010 mb)
NW 17.3 mph
(NW 28 kph)
- 10SM
14:35
Partly Cloudy
64°F / 18°C 36°F / 2°C 34% 29.8 in
(1009 mb)
NW 15 mph
(NW 24 kph)
- 10SM
14:15
Partly Cloudy
66°F / 19°C 34°F / 1°C 30% 29.8 in
(1009 mb)
W 9.2 mph
(W 15 kph)
- 10SM
13:55
Mostly Cloudy
64°F / 18°C 34°F / 1°C 32% 29.8 in
(1009 mb)
WNW 12.7 mph
(WNW 20 kph)
- 10SM
13:35
Mostly Cloudy
64°F / 18°C 34°F / 1°C 32% 29.77 in
(1008 mb)
W 9.2 mph
(W 15 kph)
- 10SM
13:15
Mostly Cloudy
64°F / 18°C 34°F / 1°C 32% 29.77 in
(1008 mb)
NW 13.8 mph
(NW 22 kph)
- 10SM
12:55
Mostly Cloudy
66°F / 19°C 36°F / 2°C 32% 29.77 in
(1008 mb)
W 10.4 mph
(W 17 kph)
- 10SM
12:35
Mostly Cloudy
68°F / 20°C 36°F / 2°C 30% 29.77 in
(1008 mb)
W 16.1 mph
(W 26 kph)
- 10SM
12:15
Mostly Cloudy
66°F / 19°C 34°F / 1°C 30% 29.74 in
(1007 mb)
W 12.7 mph
(W 20 kph)
- 10SM
11:55
Mostly Cloudy
66°F / 19°C 34°F / 1°C 30% 29.74 in
(1007 mb)
SSW 13.8 mph
(SSW 22 kph)
- 10SM
11:35
Mostly Cloudy
66°F / 19°C 34°F / 1°C 30% 29.74 in
(1007 mb)
SSW 6.9 mph
(SSW 11 kph)
- 10SM
11:15
Overcast
64°F / 18°C 34°F / 1°C 32% 29.77 in
(1008 mb)
NW 8.1 mph
(NW 13 kph)
- 10SM
10:55
Overcast
64°F / 18°C 34°F / 1°C 32% 29.77 in
(1008 mb)
SSW 12.7 mph
(SSW 20 kph)
- 10SM
10:35
Mostly Cloudy
66°F / 19°C 34°F / 1°C 30% 29.77 in
(1008 mb)
W 11.5 mph
(W 19 kph)
- 10SM
10:15
Mostly Cloudy
64°F / 18°C 34°F / 1°C 32% 29.77 in
(1008 mb)
SSW 11.5 mph
(SSW 19 kph)
- 10SM
09:55
Partly Cloudy
66°F / 19°C 34°F / 1°C 30% 29.77 in
(1008 mb)
SSW 6.9 mph
(SSW 11 kph)
- 10SM
09:35
Partly Cloudy
64°F / 18°C 34°F / 1°C 32% 29.77 in
(1008 mb)
WNW 6.9 mph
(WNW 11 kph)
- 10SM
09:15
Partly Cloudy
64°F / 18°C 34°F / 1°C 32% 29.77 in
(1008 mb)
W 9.2 mph
(W 15 kph)
- 10SM
08:55
Clear
63°F / 17°C 34°F / 1°C 34% 29.77 in
(1008 mb)
SSW 5.8 mph
(SSW 9 kph)
- 10SM
08:35
Clear
63°F / 17°C 34°F / 1°C 34% 29.77 in
(1008 mb)
SSW 4.6 mph
(SSW 7 kph)
- 10SM
08:15
Clear
61°F / 16°C 34°F / 1°C 36% 29.77 in
(1008 mb)
SW 6.9 mph
(SW 11 kph)
- 10SM
07:55
Clear
61°F / 16°C 36°F / 2°C 39% 29.77 in
(1008 mb)
SSW 5.8 mph
(SSW 9 kph)
- 10SM
07:35
Clear
59°F / 15°C 36°F / 2°C 42% 29.77 in
(1008 mb)
SSW 6.9 mph
(SSW 11 kph)
- 10SM
07:15
Clear
57°F / 14°C 36°F / 2°C 44% 29.8 in
(1009 mb)
SW 5.8 mph
(SW 9 kph)
- 10SM
06:55
Clear
57°F / 14°C 37°F / 3°C 48% 29.8 in
(1009 mb)
SW 6.9 mph
(SW 11 kph)
- 10SM
06:35
Clear
57°F / 14°C 37°F / 3°C 48% 29.8 in
(1009 mb)
SW 5.8 mph
(SW 9 kph)
- 10SM
06:15
Clear
55°F / 13°C 37°F / 3°C 51% 29.8 in
(1009 mb)
SW 6.9 mph
(SW 11 kph)
- 10SM
05:55
Partly Cloudy
54°F / 12°C 37°F / 3°C 54% 29.8 in
(1009 mb)
SW 5.8 mph
(SW 9 kph)
- 10SM
05:35
Overcast
54°F / 12°C 37°F / 3°C 54% 29.8 in
(1009 mb)
NW 5.8 mph
(NW 9 kph)
- 10SM
05:15
Overcast
54°F / 12°C 39°F / 4°C 58% 29.77 in
(1008 mb)
SSE 3.5 mph
(SSE 6 kph)
- 10SM
04:55
Overcast
54°F / 12°C 39°F / 4°C 58% 29.8 in
(1009 mb)
Calm - 10SM
04:35
Overcast
54°F / 12°C 39°F / 4°C 58% 29.77 in
(1008 mb)
S 3.5 mph
(S 6 kph)
- 10SM
04:15
Overcast
54°F / 12°C 39°F / 4°C 58% 29.77 in
(1008 mb)
SSW 4.6 mph
(SSW 7 kph)
- 10SM
03:55
Overcast
54°F / 12°C 37°F / 3°C 54% 29.77 in
(1008 mb)
SW 5.8 mph
(SW 9 kph)
- 10SM
03:35
Overcast
54°F / 12°C 37°F / 3°C 54% 29.77 in
(1008 mb)
SSW 5.8 mph
(SSW 9 kph)
- 10SM
03:15
Overcast
55°F / 13°C 36°F / 2°C 47% 29.77 in
(1008 mb)
SSW 6.9 mph
(SSW 11 kph)
- 10SM
02:55
Overcast
55°F / 13°C 36°F / 2°C 47% 29.77 in
(1008 mb)
SSW 5.8 mph
(SSW 9 kph)
- 10SM
02:35
Overcast
55°F / 13°C 36°F / 2°C 47% 29.74 in
(1007 mb)
SW 4.6 mph
(SW 7 kph)
- 10SM
02:15
Overcast
55°F / 13°C 36°F / 2°C 47% 29.77 in
(1008 mb)
SSW 5.8 mph
(SSW 9 kph)
- 10SM
01:55
Overcast
55°F / 13°C 36°F / 2°C 47% 29.77 in
(1008 mb)
SW 5.8 mph
(SW 9 kph)
- 10SM
01:35
Overcast
55°F / 13°C 36°F / 2°C 47% 29.77 in
(1008 mb)
SSW 3.5 mph
(SSW 6 kph)
- 10SM
01:15
Overcast
55°F / 13°C 36°F / 2°C 47% 29.77 in
(1008 mb)
SSW 5.8 mph
(SSW 9 kph)
- 10SM
00:55
Overcast
55°F / 13°C 34°F / 1°C 44% 29.77 in
(1008 mb)
SW 4.6 mph
(SW 7 kph)
- 10SM
00:35
Overcast
55°F / 13°C 36°F / 2°C 47% 29.77 in
(1008 mb)
SW 3.5 mph
(SW 6 kph)
- 10SM
00:15
Overcast
55°F / 13°C 34°F / 1°C 44% 29.77 in
(1008 mb)
Calm - 10SM
Time Weather Temperature Dewpoint Humidity Pressure Winds Precip Visibility


Weather for websites

WeatherForYou.com, LLC is not responsible for any damages or problems caused by this service. Current weather conditions are obtained from the closest station including government and personal stations which may have varying degrees of accuracy. Weather forecasts are derived from the NOAA NDFD. Like all things, this site belongs to Jesus Christ... He just trusts us to maintain it. If you have any questions or comments email webmaster@weatherforyou.com

Copyright © 2015, WeatherForYou.com LLC. All rights reserved.